Regional Weather Roundup
Issued by NWS

Home | Current Version | Previous Version | Text Only | Print | Product List | Glossary Off
Versions: 1 2 3 4 5 6 7 8 9 10 11 12 13 14 15 16 17 18 19 20 21 22 23 24 25 26 27 28 29 30 31 32 33 34 35 36 37 38 39 40 41 42 43 44 45 46 47 48 49 50

000
ASUS43 KDTX 170310
RWRMI
MICHIGAN HOURLY REGIONAL WEATHER ROUNDUP
NATIONAL WEATHER SERVICE DETROIT/PONTIAC MI
1100 PM EDT WED APR 16 2014

NOTE: "FAIR" INDICATES FEW OR NO CLOUDS BELOW 12,000 FEET WITH NO
SIGNIFICANT WEATHER AND/OR OBSTRUCTION TO VISIBILITY.

MIZ047>049-052>055-059>063-066>070-074>076-081>083-170400-
SOUTHEAST LOWER MICHIGAN

CITY           SKY/WX    TMP DP  RH WIND       PRES   REMARKS
ADRIAN         CLEAR     34  27  75 E14       30.36S
ALMA           PTCLDY    36  18  49 SE9       30.36R
ANN ARBOR      CLEAR     32  21  64 E12       30.37S
BAD AXE        PTCLDY    33  17  52 SE5       30.42F
DETROIT CITY   CLEAR     36  20  52 E12       30.42F
DETROIT        PTCLDY    33  20  58 E10       30.40F
FLINT          CLEAR     34  19  54 SE13      30.39R
GROSSE ILE     CLEAR     34  25  69 E13       30.38F
HILLSDALE      CLEAR     33  27  78 E12       30.31S
HOWELL         CLEAR     33  20  59 SE8       30.35S

CITY           SKY/WX    TMP DP  RH WIND       PRES   REMARKS
JACKSON        CLEAR     33  23  66 SE16      30.33S
LAMBERTVILLE   CLEAR     36  30  80 E6        30.36F
LANSING        CLEAR     36  22  56 E14G20    30.33F
LAPEER         NOT AVBL
MASON          CLEAR     34  24  67 SE9G16    30.33F
MONROE         CLEAR     36  27  69 E12G18    30.36F
MT. CLEMENS    MOCLDY    33  17  51 E13       30.41F
PONTIAC        PTCLDY    33  20  58 E10       30.38S
PORT HOPE        N/A     34  21  59 SE7       30.43R
PORT HURON     CLEAR     32  16  51 E5        30.44F
TRI CITIES     MOCLDY    36  20  52 SE16      30.39R
YPSILANTI      CLEAR     35  21  56 E14       30.39F
$$
MIZ043>046-050>051-056>058-064>065-071>073-077>080-170400-
SOUTHWEST LOWER MICHIGAN

CITY           SKY/WX    TMP DP  RH WIND       PRES   REMARKS
BATTLE CREEK   PTCLDY    37  26  64 SE15      30.29S
BENTON HARBOR  CLOUDY    42  24  49 SE16G23   30.21F
BIG RAPIDS     CLOUDY    39  23  53 SE14G22   30.28S
COLDWATER      CLEAR     35  27  72 E13G18    30.29F
HOLLAND        CLOUDY    43  24  47 SE16G25   30.25S
GRAND RAPIDS   CLOUDY    40  25  55 E16       30.28F
KALAMAZOO      PTCLDY    40  25  55 SE12      30.27F
MARSHALL       CLEAR     34  26  72 E9        30.29F
MUSKEGON       CLOUDY    43  21  41 SE21      30.23F
$$
MIZ016>042-170400-
NORTHERN LOWER MICHIGAN

CITY           SKY/WX    TMP DP  RH WIND       PRES   REMARKS
ALPENA         CLOUDY    33  21  61 SE12      30.40F
BEAVER ISLAND  CLOUDY    31  29  93 NE5       30.33R
BELLAIRE       CLOUDY    38  20  48 SE9       30.30S
CADILLAC       CLOUDY    35  23  61 SE12G23   30.26S
CHARLEVOIX     CLOUDY    33  31  91 E15       30.29F
FRANKFORT      CLOUDY    40  24  53 SE12      30.24S
GAYLORD        CLOUDY    33  20  58 SE15G21   30.30F
GRAYLING       CLOUDY    33  20  60 E13G18    30.33S
HARBOR SPRINGS CLOUDY    33  31  91 E5        30.32R
HOUGHTON LAKE  CLOUDY    34  23  64 SE14      30.32S
MANISTEE       CLOUDY    41  19  42 SE14G21   30.23F
OSCODA         CLOUDY    36  26  66 SE9G18    30.41F
PELLSTON       CLOUDY    33  28  81 SE8       30.33F
TRAVERSE CITY  CLOUDY    39  21  48 SE12G20   30.26F
$$
MIZ007>008-015-170400-
EASTERN UPPER MICHIGAN

CITY           SKY/WX    TMP DP  RH WIND       PRES   REMARKS
KINROSS        CLOUDY    28  28 100 E15       30.35F
MACKINAC ISLAN CLOUDY    31  31  99 E10       30.33F
NEWBERRY       LGT SNOW  28  26  96 E6        30.35R VSB 1
S. S. MARIE    LGT SNOW  28  25  88 E10       30.37F FOG
$$
MIZ004>006-011>014-085-170400-
CENTRAL UPPER MICHIGAN

CITY           SKY/WX    TMP DP  RH WIND       PRES   REMARKS
MANISTIQUE     CLOUDY    30  28  94 E12       30.30F
ESCANABA       CLOUDY    30  27  86 E14       30.26S
MENOMINEE      CLOUDY    34  28  80 E10       30.22S
SAWYER-GWINN   SNOW      28  27  94 E7        30.26S VSB 1/2
$$
MIZ001>003-009>011-084-170400-
WESTERN UPPER MICHIGAN

CITY           SKY/WX    TMP DP  RH WIND       PRES   REMARKS
IRON MOUNTAIN  LGT SNOW  28  27  93 E10       30.21R FOG
HOUGHTON       LGT SNOW  28  25  88 E18       30.25S VSB 1
COPPER HARBOR    N/A     30  26  85 VRB6      30.32R
IRONWOOD       CLOUDY    28  25  86 E12G18    30.09F
$$

ABBREVIATIONS USED IN REMARKS
   TC - TEMPERATURE IN CELSIUS
  WCI - WIND CHILL INDEX
   HX - HEAT INDEX
  VSB - VISIBILITY




USA.gov is the U.S. government's official web portal to all federal, state and local government web resources and services.